• In Österreich
  • Länderverzeichnis
  • Für 7 Tage
  • Wassertemperatur
  • Satellitenkarten
  • Wetterkarte
  • News
  • Widgets
  • user-avatar
    Anmelden

    Stündliche Wetter Tirana

    Heute, 25 September, Dienstag

    Zeit Temperatur Niederschläge Wind Luftdruck Luftfeuchtigkeit
    00:00 +18°C° 0.1 mm 7 m/S 757 mmHg 63%
    01:00 +17°C° 0 mm 8 m/S 757 mmHg 60%
    02:00 +17°C° 0 mm 8 m/S 757 mmHg 59%
    03:00 +16°C° 0 mm 7 m/S 758 mmHg 58%
    04:00 +15°C° 0 mm 7 m/S 758 mmHg 57%
    05:00 +15°C° 0 mm 7 m/S 758 mmHg 55%
    06:00 +15°C° 0 mm 8 m/S 759 mmHg 52%
    07:00 +16°C° 0 mm 9 m/S 759 mmHg 48%
    08:00 +17°C° 0 mm 8 m/S 759 mmHg 42%
    09:00 +20°C° 0 mm 8 m/S 759 mmHg 37%
    10:00 +22°C° 0 mm 8 m/S 759 mmHg 32%
    11:00 +23°C° 0 mm 7 m/S 759 mmHg 28%
    12:00 +24°C° 0 mm 7 m/S 759 mmHg 25%
    13:00 +24°C° 0 mm 8 m/S 759 mmHg 23%
    14:00 +24°C° 0 mm 8 m/S 759 mmHg 24%
    15:00 +24°C° 0 mm 7 m/S 759 mmHg 24%
    16:00 +23°C° 0 mm 7 m/S 759 mmHg 24%
    17:00 +21°C° 0 mm 7 m/S 759 mmHg 27%
    18:00 +18°C° 0 mm 7 m/S 760 mmHg 30%
    19:00 +16°C° 0 mm 7 m/S 760 mmHg 33%
    20:00 +15°C° 0 mm 7 m/S 761 mmHg 35%
    21:00 +13°C° 0 mm 8 m/S 761 mmHg 37%
    22:00 +12°C° 0 mm 8 m/S 762 mmHg 38%
    23:00 +12°C° 0 mm 8 m/S 762 mmHg 40%

    Morgen, 26 September, Mittwoch

    Zeit Temperatur Niederschläge Wind Luftdruck Luftfeuchtigkeit
    00:00 +11°C° 0 mm 8 m/S 762 mmHg 42%
    01:00 +11°C° 0 mm 8 m/S 762 mmHg 44%
    02:00 +10°C° 0 mm 8 m/S 762 mmHg 45%
    03:00 +10°C° 0 mm 8 m/S 762 mmHg 47%
    04:00 +9°C° 0 mm 7 m/S 762 mmHg 48%
    05:00 +10°C° 0 mm 8 m/S 762 mmHg 46%
    06:00 +11°C° 0 mm 8 m/S 763 mmHg 44%
    07:00 +11°C° 0 mm 8 m/S 763 mmHg 42%
    08:00 +13°C° 0 mm 8 m/S 763 mmHg 37%
    09:00 +16°C° 0 mm 8 m/S 763 mmHg 31%
    10:00 +18°C° 0 mm 8 m/S 763 mmHg 26%
    11:00 +20°C° 0 mm 8 m/S 763 mmHg 25%
    12:00 +21°C° 0 mm 8 m/S 762 mmHg 23%
    13:00 +21°C° 0 mm 8 m/S 762 mmHg 21%
    14:00 +21°C° 0 mm 9 m/S 762 mmHg 22%
    15:00 +21°C° 0 mm 9 m/S 762 mmHg 22%
    16:00 +19°C° 0 mm 9 m/S 762 mmHg 23%
    17:00 +17°C° 0 mm 8 m/S 762 mmHg 27%
    18:00 +15°C° 0 mm 8 m/S 763 mmHg 31%
    19:00 +12°C° 0 mm 7 m/S 764 mmHg 35%
    20:00 +11°C° 0 mm 7 m/S 764 mmHg 37%
    21:00 +10°C° 0 mm 7 m/S 764 mmHg 40%
    22:00 +9°C° 0 mm 7 m/S 765 mmHg 43%
    23:00 +9°C° 0 mm 7 m/S 765 mmHg 44%

    übermorgen, 27 September, Donnerstag

    Zeit Temperatur Niederschläge Wind Luftdruck Luftfeuchtigkeit
    00:00 +8°C° 0 mm 7 m/S 765 mmHg 45%
    01:00 +8°C° 0 mm 7 m/S 765 mmHg 46%
    02:00 +8°C° 0 mm 7 m/S 764 mmHg 47%
    03:00 +6°C° 0 mm 7 m/S 764 mmHg 47%
    04:00 +7°C° 0 mm 6 m/S 764 mmHg 48%
    05:00 +8°C° 0 mm 6 m/S 764 mmHg 45%
    06:00 +9°C° 0 mm 6 m/S 763 mmHg 43%
    07:00 +10°C° 0 mm 6 m/S 763 mmHg 40%
    08:00 +14°C° 0 mm 6 m/S 763 mmHg 34%
    09:00 +16°C° 0 mm 6 m/S 763 mmHg 27%
    10:00 +20°C° 0 mm 6 m/S 762 mmHg 21%
    11:00 +21°C° 0 mm 6 m/S 762 mmHg 18%
    12:00 +22°C° 0 mm 6 m/S 761 mmHg 16%
    13:00 +24°C° 0 mm 6 m/S 760 mmHg 14%
    14:00 +23°C° 0 mm 5 m/S 760 mmHg 15%
    15:00 +23°C° 0 mm 5 m/S 759 mmHg 16%
    16:00 +23°C° 0 mm 5 m/S 759 mmHg 17%
    17:00 +21°C° 0 mm 5 m/S 759 mmHg 20%
    18:00 +17°C° 0 mm 6 m/S 759 mmHg 24%
    19:00 +15°C° 0 mm 6 m/S 759 mmHg 27%
    20:00 +14°C° 0 mm 6 m/S 759 mmHg 29%
    21:00 +13°C° 0 mm 6 m/S 759 mmHg 31%
    22:00 +13°C° 0 mm 6 m/S 759 mmHg 33%
    23:00 +12°C° 0 mm 5 m/S 759 mmHg 34%

    28 September, Freitag

    Zeit Temperatur Niederschläge Wind Luftdruck Luftfeuchtigkeit
    00:00 +12°C° 0 mm 5 m/S 758 mmHg 34%
    01:00 +12°C° 0 mm 5 m/S 758 mmHg 35%
    02:00 +12°C° 0 mm 5 m/S 758 mmHg 35%
    03:00 +10°C° 0 mm 5 m/S 757 mmHg 35%
    04:00 +10°C° 0 mm 5 m/S 757 mmHg 35%
    05:00 +12°C° 0 mm 5 m/S 756 mmHg 34%
    06:00 +14°C° 0 mm 5 m/S 756 mmHg 32%
    07:00 +15°C° 0 mm 5 m/S 756 mmHg 30%
    08:00 +19°C° 0 mm 5 m/S 755 mmHg 26%
    09:00 +21°C° 0 mm 4 m/S 755 mmHg 22%
    10:00 +25°C° 0 mm 4 m/S 754 mmHg 18%
    11:00 +26°C° 0 mm 4 m/S 754 mmHg 19%
    12:00 +27°C° 0 mm 4 m/S 753 mmHg 20%
    13:00 +28°C° 0 mm 4 m/S 753 mmHg 22%
    14:00 +28°C° 0 mm 5 m/S 752 mmHg 23%
    15:00 +28°C° 0 mm 5 m/S 752 mmHg 24%
    16:00 +28°C° 0 mm 6 m/S 751 mmHg 26%
    17:00 +24°C° 0 mm 6 m/S 751 mmHg 29%
    18:00 +22°C° 0 mm 6 m/S 752 mmHg 33%
    19:00 +20°C° 0 mm 5 m/S 752 mmHg 36%
    20:00 +19°C° 0 mm 5 m/S 752 mmHg 36%
    21:00 +19°C° 0 mm 4 m/S 752 mmHg 37%
    22:00 +18°C° 0 mm 4 m/S 752 mmHg 37%
    23:00 +18°C° 0 mm 4 m/S 752 mmHg 38%

    29 September, Samstag

    Zeit Temperatur Niederschläge Wind Luftdruck Luftfeuchtigkeit
    00:00 +18°C° 0 mm 3 m/S 751 mmHg 38%
    01:00 +18°C° 0 mm 3 m/S 751 mmHg 38%
    02:00 +18°C° 0 mm 3 m/S 751 mmHg 39%
    03:00 +17°C° 0 mm 3 m/S 751 mmHg 39%
    04:00 +17°C° 0 mm 3 m/S 751 mmHg 39%
    05:00 +18°C° 0 mm 3 m/S 751 mmHg 38%
    06:00 +18°C° 0 mm 3 m/S 750 mmHg 38%
    07:00 +19°C° 0 mm 3 m/S 750 mmHg 37%
    08:00 +22°C° 0 mm 3 m/S 750 mmHg 33%
    09:00 +25°C° 0 mm 2 m/S 750 mmHg 30%
    10:00 +27°C° 0 mm 2 m/S 750 mmHg 26%
    11:00 +28°C° 0 mm 3 m/S 750 mmHg 26%
    12:00 +29°C° 0 mm 4 m/S 750 mmHg 26%
    13:00 +30°C° 0 mm 5 m/S 749 mmHg 25%
    14:00 +30°C° 0 mm 5 m/S 749 mmHg 26%
    15:00 +29°C° 0 mm 5 m/S 749 mmHg 27%
    16:00 +29°C° 0 mm 6 m/S 749 mmHg 28%
    17:00 +26°C° 0 mm 5 m/S 749 mmHg 33%
    18:00 +23°C° 0 mm 5 m/S 750 mmHg 39%
    19:00 +21°C° 0 mm 4 m/S 750 mmHg 44%
    20:00 +20°C° 0 mm 4 m/S 751 mmHg 43%
    21:00 +20°C° 0 mm 3 m/S 751 mmHg 42%
    22:00 +19°C° 0 mm 3 m/S 751 mmHg 41%
    23:00 +19°C° 0 mm 3 m/S 751 mmHg 40%

    30 September, Sonntag

    Zeit Temperatur Niederschläge Wind Luftdruck Luftfeuchtigkeit
    00:00 +18°C° 0 mm 3 m/S 751 mmHg 40%
    01:00 +18°C° 0 mm 3 m/S 751 mmHg 39%
    02:00 +18°C° 0 mm 2 m/S 751 mmHg 39%
    03:00 +17°C° 0 mm 2 m/S 751 mmHg 39%
    04:00 +17°C° 0 mm 2 m/S 751 mmHg 39%
    05:00 +18°C° 0 mm 2 m/S 752 mmHg 38%
    06:00 +19°C° 0 mm 3 m/S 752 mmHg 38%
    07:00 +19°C° 0 mm 3 m/S 752 mmHg 38%
    08:00 +22°C° 0 mm 3 m/S 752 mmHg 35%
    09:00 +25°C° 0 mm 3 m/S 752 mmHg 32%
    10:00 +28°C° 0 mm 3 m/S 752 mmHg 29%
    11:00 +28°C° 0 mm 3 m/S 752 mmHg 30%
    12:00 +29°C° 0 mm 3 m/S 752 mmHg 31%
    13:00 +29°C° 0 mm 4 m/S 751 mmHg 32%
    14:00 +28°C° 0.1 mm 3 m/S 751 mmHg 37%
    15:00 +27°C° 0.1 mm 3 m/S 751 mmHg 42%
    16:00 +27°C° 0.1 mm 3 m/S 751 mmHg 46%
    17:00 +25°C° 0.4 mm 3 m/S 751 mmHg 55%
    18:00 +23°C° 0.4 mm 2 m/S 751 mmHg 63%
    19:00 +20°C° 0.4 mm 2 m/S 752 mmHg 71%
    20:00 +20°C° 0.5 mm 2 m/S 752 mmHg 71%
    21:00 +20°C° 0.5 mm 3 m/S 752 mmHg 71%
    22:00 +20°C° 0.5 mm 4 m/S 752 mmHg 71%
    23:00 +20°C° 1.5 mm 4 m/S 752 mmHg 72%
    Mehr zeigen